User: anonymous   Login
Location: *
(1.3500°S, 147.5000°W)
Time: 10:01:05
(UTC+00:00)
Language:

Cosmos 1602 Rocket - Orbit

View from above orbital plane
View from above orbital plane
View from above satellite
View from above satellite

Ground track
Ground track

The orbit data is extracted from the following two-line orbital elements,

1 15332U 84105B   20184.90929348 +.00000073 +00000-0 +60039-5 0  9994
2 15332 082.5341 228.8060 0019827 306.6850 226.5147 14.83421394910309
Epoch (UTC): 02 July 2020 21:49:22
Eccentricity: 0.0019827
inclination: 82.5341°
perigee height: 604 km
apogee height: 632 km
right ascension of ascending node: 228.8060°
argument of perigee: 306.6850°
revolutions per day: 14.83421394
mean anomaly at epoch: 226.5147°
orbit number at epoch: 91030

The dashed part of the orbit path shows where the satellite is in the earth's shadow,  

DLR